EDT,Max TemperatureF,Mean TemperatureF,Min TemperatureF,Max Dew PointF,MeanDew PointF,Min DewpointF,Max Humidity, Mean Humidity, Min Humidity, Max Sea Level PressureIn, Mean Sea Level PressureIn, Min Sea Level PressureIn, Max VisibilityMiles, Mean VisibilityMiles, Min VisibilityMiles, Max Wind SpeedMPH, Mean Wind SpeedMPH, Max Gust SpeedMPH,PrecipitationIn, CloudCover, Events, WindDirDegrees
2013-5-1,58,56,54,55,53,51,100,90,80,30.36,30.26,30.17,10,6,1,24,15,31,0.09,8,Rain,47
2013-5-2,63,59,54,53,50,47,93,80,67,30.39,30.34,30.29,10,10,9,21,12,26,0.00,6,,40
2013-5-3,61,57,52,52,48,45,93,74,55,30.33,30.28,30.24,10,10,10,25,16,35,0.00,5,,53
2013-5-4,61,56,51,50,48,46,96,84,72,30.25,30.19,30.16,10,9,2,23,15,29,0.02,8,Rain,45
2013-5-5,57,55,52,50,48,46,89,83,77,30.16,30.13,30.10,10,10,7,21,15,28,T,8,,54
2013-5-6,73,64,54,60,56,52,100,79,57,30.09,30.03,29.97,10,7,0,21,11,28,0.03,7,Fog,85
2013-5-7,74,65,56,61,58,53,93,77,61,29.97,29.92,29.86,10,10,3,20,9,26,0.18,5,Rain,128
2013-5-8,75,64,53,59,55,50,93,70,47,30.02,29.97,29.94,10,10,2,16,6,21,0.07,4,Rain,187
2013-5-9,79,68,56,59,55,49,93,65,36,30.04,29.98,29.94,10,10,10,14,5,23,0.00,2,,251
2013-5-10,87,74,60,59,56,54,84,59,34,30.04,30.00,29.95,10,10,10,18,10,25,0.00,1,,211
2013-5-11,84,76,68,67,62,59,84,64,44,29.96,29.85,29.77,10,10,2,26,14,33,0.31,4,Rain,208
2013-5-12,70,65,60,65,56,41,93,70,46,30.01,29.83,29.75,10,9,2,21,7,28,0.11,6,Rain,6
2013-5-13,64,60,56,39,34,28,46,38,29,30.14,30.07,30.02,10,10,10,16,9,21,0.00,4,,14
2013-5-14,66,56,45,47,36,26,77,51,24,30.22,30.16,30.11,10,10,10,14,7,20,T,1,,307
2013-5-15,86,73,59,59,52,43,60,49,37,30.11,29.94,29.81,10,10,10,25,16,31,0.00,2,,215
2013-5-16,91,81,71,60,57,52,66,47,27,29.92,29.86,29.81,10,10,10,17,9,24,0.00,0,,247
2013-5-17,77,71,65,62,54,46,78,57,36,30.15,30.06,29.93,10,10,10,14,6,17,0.00,1,,73
2013-5-18,74,67,60,66,60,52,93,76,58,30.22,30.17,30.13,10,8,2,20,8,26,1.71,7,Rain,114
2013-5-19,78,73,68,67,66,63,93,79,64,30.18,30.14,30.10,10,9,5,13,7,16,T,5,,180
2013-5-20,83,76,68,69,66,65,90,73,55,30.14,30.09,30.04,10,10,2,24,9,32,0.22,4,Rain,195
2013-5-21,83,76,69,69,67,64,90,73,55,30.06,30.00,29.95,10,9,2,15,10,17,0.23,5,Rain,209
2013-5-22,86,77,68,67,65,63,90,69,48,30.01,29.97,29.91,10,10,10,24,16,31,0.00,1,,210
2013-5-23,77,73,68,70,67,62,93,84,74,29.99,29.91,29.81,10,8,0,23,9,29,0.85,6,Fog-Rain,190
2013-5-24,74,64,54,65,55,35,87,67,47,30.11,29.89,29.76,10,9,2,22,10,35,0.33,6,Rain,315
2013-5-25,67,58,48,43,35,32,56,43,29,30.19,30.14,30.10,10,10,10,16,7,26,0.00,0,,310
2013-5-26,73,64,55,49,39,33,77,51,25,30.24,30.19,30.15,10,10,10,13,6,22,0.00,0,,289
2013-5-27,77,65,52,53,49,43,89,61,33,30.28,30.23,30.19,10,10,10,13,6,18,0.00,1,,196
2013-5-28,84,74,63,62,59,55,78,61,43,30.25,30.20,30.13,10,10,10,22,14,28,0.00,2,,199
2013-5-29,88,78,67,63,62,61,87,65,43,30.21,30.17,30.14,10,10,10,21,14,29,0.00,0,,214
2013-5-30,87,77,67,67,63,59,87,67,46,30.26,30.21,30.17,10,10,10,16,9,21,0.00,0,,212
2013-5-31,90,81,71,68,66,60,84,61,38,30.22,30.17,30.09,10,10,10,20,10,24,0.00,1,,207